This is the latest recevied weather packets stored in our database for station/object DL9CN-10. If no packets are shown the sender has not sent any weather packets the latest 10 day(s).
| Time | Temp. | Humidity | Pressure | Rain* | Wind** | Luminosity | Snow |
|---|---|---|---|---|---|---|---|
| 1777312356 | 23.33° C | 33% | 1019.2 hPa | - | - | - | - |
| 1777311455 | 23.33° C | 34% | 1019.1 hPa | - | - | - | - |
| 1777310555 | 23.33° C | 34% | 1019.1 hPa | - | - | - | - |
| 1777309654 | 23.33° C | 35% | 1019.2 hPa | - | - | - | - |
| 1777308754 | 23.89° C | 36% | 1019.3 hPa | - | - | - | - |
| 1777307854 | 23.89° C | 38% | 1019.3 hPa | - | - | - | - |
| 1777306957 | 23.89° C | 38% | 1019.4 hPa | - | - | - | - |
| 1777306057 | 23.89° C | 39% | 1019.6 hPa | - | - | - | - |
| 1777305157 | 23.33° C | 39% | 1019.6 hPa | - | - | - | - |
| 1777304256 | 23.33° C | 40% | 1019.7 hPa | - | - | - | - |
| 1777303356 | 23.33° C | 40% | 1019.9 hPa | - | - | - | - |
| 1777302456 | 23.33° C | 40% | 1020.1 hPa | - | - | - | - |
| 1777301556 | 23.33° C | 41% | 1020 hPa | - | - | - | - |
| 1777300656 | 22.78° C | 41% | 1020.2 hPa | - | - | - | - |
| 1777299756 | 22.78° C | 41% | 1020.3 hPa | - | - | - | - |
| 1777298856 | 22.78° C | 41% | 1020.5 hPa | - | - | - | - |
| 1777297956 | 22.22° C | 41% | 1020.7 hPa | - | - | - | - |
| 1777297056 | 22.22° C | 41% | 1020.9 hPa | - | - | - | - |
| 1777296155 | 21.67° C | 41% | 1021 hPa | - | - | - | - |
| 1777295255 | 21.67° C | 41% | 1021.1 hPa | - | - | - | - |
| 1777294355 | 21.11° C | 41% | 1021.3 hPa | - | - | - | - |
| 1777293455 | 21.11° C | 41% | 1021.3 hPa | - | - | - | - |
| 1777292555 | 20.56° C | 41% | 1021.5 hPa | - | - | - | - |
| 1777291654 | 20.56° C | 41% | 1021.6 hPa | - | - | - | - |
| 1777290754 | 20° C | 41% | 1021.6 hPa | - | - | - | - |
* Rain since midnight (hover to see other rain measurements)
** Current wind speed in m/s (hover to see current wind gust speed)